EHI
0 0 0 0 0 0 0 0 0 0 0 0 0 0 0 0 0 0 0 0 0 0 0 0 0 0 0 0 0 0 0 0 0 0 0 0 0 0 0 0 0 0 0
0 0 0 0 0 0 0 0 0 0 0 0 0 0 0 0 0 0 0 0 0 0 0 0 0 0 0 0 0 0 0 0 0 0 0 0 0 0 0 0 0 0 0
0 0 0 0 0 0 0 0 0 0 0 0 0 0 0 0 0 0 0 0 0 0 0 0 0 0 0 0 0 0 0 0 0 0 0 0 0 0 0 0 0 0 0
0 0 0 0 0 0 0 0 0 0 0 0 0 0 0 0 0 0 0 0 0 0 0 0 0 0 0 0 0 0 0 0 0 0 0 0 0 0 0 0 0 0 0
0 0 0 0 0 0 0 0 0 0 0 0 0 0 0 0 0 0 0 0 0 0 0 0 0 0 0 0 0 0 0 0 0 0 0 0 0 0 0 0 0 0 0
0 0 0 0 0 0 0 0 0 0 0 0 0 0 0 0 0 0 0 0 0 0 0 0 0 0 0 0 0 0 0 0 0 0 0 0 0 0 0 0 0 0 0
0 0 0 0 0 0 0 0 0 0 0 0 0 0 0 0 0 0 0 0 0 0 0 0 0 0 0 0 0 0 0 0 0 0 0 0 0 0 0 0 0 0 0
0 0 0 0 0 0 0 0 0 0 0 0 0 0 0 0 0 0 0 0 0 0 0 0 0 0 0 0 0 0 0 0 0 0 0 0 0 0 0 0 0 0 0
0 0 0 0 0 0 0 0 0 0 0 0 0 0 0 0 0 0 0 0 0 0 0 0 0 0 0 0 0 0 0 0 0 0 0 0 0 0 0 0 0 0 0
0 0 0 0 0 0 0 0 0 0 0 0 0 0 0 0 0 0 0 0 0 0 0 0 0 0 0 0 0 0 0 0 0 0 0 0 0 0 0 0 0 0 0
0 0 0 0 0 0 0 0 0 0 0 0 0 0 0 0 0 0 0 0 0 0 0 0 0 0 0 0 0 0 0 0 0 0 0 0 0 0 0 0 0 0 0
0 0 0 0 0 0 0 0 0 0 0 0 0 0 0 0 0 0 0 0 0 0 0 0 0 0 0 0 0 0 0 0 0 0 0 0 0 0 0 0 0 0 0
0 0 0 0 0 0 0 0 0 0 0 0 0 0 0 0 0 0 0 0 0 0 0 0 0 0 0 0 0 0 0 0 0 0 0 0 0 0 0 0 0 0 0
0 0 0 0 0 0 0 0 0 0 0 0 0 0 0 0 0 0 0 0 0 0 0 0 0 0 0 0 0 0 0 0 0 0 0 0 0 0 0 0 0 0 0
0 0 0 0 0 0 0 0 0 0 0 0 0 0 0 0 0 0 0 0 0 0 0 0 0 0 0 0 0 0 0 0 0 0 0 0 0 0 0 0 0 0 0
0 0 0 0 0 0 0 0 0 0 0 0 0 0 0 0 0 0 0 0 0 0 0 0 0 0 0 0 0 0 0 0 0 0 0 0 0 0 0 0 0 0 0
0 0 0 0 0 0 0 0 0 0 0 0 0 0 0 0 0 0 0 0 0 0 0 0 0 0 0 0 0 0 0 0 0 0 0 0 0 0 0 0 0 0 0
0 0 0 0 0 0 0 0 0 0 0 0 0 0 0 0 0 0 0 0 0 0 0 0 0 0 0 0 0 0 0 0 0 0 0 0 0 0 0 0 0 0 0
0 0 0 0 0 0 0 0 0 0 0 0 0 0 0 0 0 0 0 0 0 0 0 0 0 0 0 0 0 0 0 0 0 0 0 0 0 0 0 0 0 0 0
0 0 0 0 0 0 0 0 0 0 0 0 0 0 0 0 0 0 0 0 0 0 0 0 0 0 0 0 0 0 0 0 0 0 0 0 0 0 0 0 0 0 0
0 0 0 0 0 0 0 0 0 0 0 0 0 0 0 0 0 0 0 0 0 0 0 0 0 0 0 0 0 0 0 0 0 0 0 0 0 0 0 0 0 0 0
0 0 0 0 0 0 0 0 0 0 0 0 0 0 0 0 0 0 0 0 0 0 0 0 0 0 0 0 0 0 0 0 0 0 0 0 0 0 0 0 0 0 0
0 0 0 0 0 0 0 0 0 0 0 0 0 0 0 0 0 0 0 0 0 0 0 0 0 0 0 0 0 0 0 0 0 0 0 0 0 0 0 0 0 0 0
0 0 0 0 0 0 0 0 0 0 0 0 0 0 0 0 0 0 0 0 0 0 0 0 0 0 0 0 0 0 0 0 0 0 0 0 0 0 0 0 0 0 0
0 0 0 0 0 0 0 0 0 0 0 0 0 0 0 0 0 0 0 0 0 0 0 0 0 0 0 0 0 0 0 0 0 0 0 0 0 0 0 0 0 0 0
0 0 0 0 0 0 0 0 0 0 0 0 0 0 0 0 0 0 0 0 0 0 0 0 0 0 0 0 0 0 0 0 0 0 0 0 0 0 0 0 0 0 0
Wind_Speed
2 2 2 2 2 2 3 3 3 4 4 4 4 5 5 5 5 4 4 8 10 11 12 12 12 11 11 10 9 9 8 7 7 6 6 6 6 6 7 7 7 7 7
2 2 3 2 2 3 3 3 4 4 4 4 4 5 6 5 5 5 4 5 9 10 12 13 13 12 11 11 10 9 8 8 7 7 7 7 7 7 7 8 8 8 8
3 3 3 3 3 3 3 3 3 3 4 4 5 5 4 5 5 6 5 4 5 8 11 12 12 12 12 11 10 10 9 8 8 8 8 8 7 8 8 9 9 9 9
2 2 3 3 3 3 3 3 3 3 4 4 4 4 4 4 6 6 5 5 4 4 7 10 11 11 11 11 11 11 10 9 9 9 9 9 9 9 10 10 10 10 10
2 2 2 2 2 2 3 3 3 3 4 4 4 4 4 4 5 5 6 6 5 5 4 6 8 8 9 10 11 11 10 10 9 10 10 10 10 10 11 11 11 11 11
2 2 2 2 2 2 2 3 3 3 3 3 4 4 4 4 4 5 6 5 5 5 5 4 4 5 6 7 9 10 10 10 10 10 10 11 11 12 12 12 12 12 12
2 1 2 1 2 2 3 3 3 4 3 2 2 2 3 4 5 4 4 5 5 5 5 5 4 3 3 5 6 7 8 9 9 9 10 11 11 12 12 13 13 13 13
2 2 2 2 2 2 2 2 3 3 2 2 2 2 2 2 3 4 4 5 5 4 4 4 4 4 3 2 3 5 6 8 10 10 9 10 11 11 12 12 13 13 13
2 2 2 2 2 2 2 2 3 4 3 3 3 3 3 3 1 2 3 4 4 4 4 3 4 4 4 3 2 3 5 7 10 11 11 10 11 12 12 13 13 12 12
2 2 2 2 2 2 2 3 2 3 3 3 3 2 2 1 2 1 2 2 3 3 4 3 4 4 3 3 3 3 5 6 10 12 12 12 12 12 12 12 12 12 12
2 2 2 2 2 2 2 2 2 2 2 3 3 2 2 2 2 2 3 2 2 2 3 3 3 3 3 3 3 4 5 7 10 12 13 13 13 13 12 12 12 13 13
2 3 2 2 2 2 2 3 2 2 3 3 3 2 2 2 2 2 3 3 3 2 3 2 3 3 3 3 4 5 6 8 10 12 13 13 12 12 13 13 13 13 13
3 3 3 2 2 3 3 2 2 3 3 3 3 3 3 3 2 2 3 3 3 2 2 2 3 3 3 3 4 6 6 8 9 11 13 13 11 12 12 12 13 13 13
3 3 3 2 2 2 3 2 2 3 2 3 3 3 2 3 2 2 2 2 3 3 2 3 2 3 3 3 4 5 5 8 8 9 11 11 11 11 11 12 12 13 13
3 3 3 3 3 3 3 3 2 3 2 3 3 3 3 2 2 2 2 3 4 4 5 3 2 3 3 3 5 4 5 7 8 9 9 9 10 10 11 11 12 12 12
4 3 3 3 2 2 2 2 2 2 3 3 2 2 2 2 2 2 2 3 3 4 5 3 3 3 4 4 5 4 5 7 8 10 9 9 10 10 11 11 11 11 12
4 3 3 3 2 2 2 2 2 3 3 2 2 3 3 3 2 2 2 3 3 3 5 4 3 3 3 4 5 4 4 5 5 9 10 10 10 10 11 11 11 11 11
4 3 3 2 3 3 2 2 3 3 3 3 3 3 4 3 3 3 2 3 3 3 4 6 4 3 4 4 5 5 5 5 5 8 10 10 10 10 11 11 10 11 11
4 3 3 3 3 3 2 2 2 2 3 3 3 4 4 4 4 3 3 3 3 3 3 4 5 4 3 3 3 5 5 4 5 6 8 9 10 10 11 11 11 11 12
4 4 3 3 3 3 3 2 2 2 2 3 3 4 4 5 5 4 4 4 3 4 3 4 4 4 3 3 2 4 5 3 4 5 6 7 9 10 11 11 11 11 11
4 4 3 3 3 2 2 2 2 2 2 2 3 4 4 5 6 5 4 4 4 4 4 4 4 4 4 3 3 3 5 5 5 4 4 4 5 5 6 8 9 10 11
4 3 3 4 4 3 4 4 3 1 2 2 3 3 3 4 5 6 7 7 6 6 5 4 5 5 5 4 3 4 4 5 5 2 3 6 4 5 5 5 9 11 11
4 4 4 4 4 4 6 6 5 2 2 2 3 3 3 3 4 4 5 7 7 8 8 6 6 6 5 5 5 5 5 6 6 5 4 7 4 6 5 6 10 11 11
3 4 4 4 4 5 7 7 6 3 3 3 3 3 4 4 4 4 4 4 4 5 6 5 6 6 6 5 5 5 5 5 5 4 3 6 5 5 5 5 9 11 11
3 3 3 4 4 5 8 7 6 2 2 3 4 3 4 4 6 6 4 4 4 4 5 6 6 6 6 6 5 3 3 4 5 4 2 3 4 6 5 5 6 10 11
3 3 4 3 4 4 7 8 6 2 2 3 3 3 5 6 6 6 4 3 4 5 4 4 4 5 4 4 5 4 4 4 4 4 2 2 3 4 5 3 4 4 6
Wind_Direction
248 241 237 230 234 234 219 218 218 218 218 214 213 213 212 211 209 207 217 219 223 230 233 231 230 229 226 225 221 219 220 223 229 236 241 247 251 258 264 269 275 274 276
240 240 241 235 232 230 229 222 222 220 222 217 220 221 222 216 215 212 214 220 224 228 234 235 232 231 229 225 221 221 221 225 231 238 245 251 253 259 265 268 272 274 273
240 237 240 240 236 227 229 228 227 223 224 223 229 228 225 220 216 216 215 217 222 225 228 233 232 229 230 226 226 228 227 228 232 237 245 250 254 259 264 268 272 273 272
255 243 240 241 238 229 222 227 222 226 229 225 228 231 227 222 224 220 216 214 213 217 222 229 233 232 230 231 233 235 233 233 235 239 244 249 253 259 262 266 269 271 272
276 254 253 251 237 230 229 235 231 220 231 230 228 229 227 223 225 223 219 214 211 211 213 221 225 230 230 232 236 239 240 242 242 243 247 250 254 258 262 265 268 269 271
292 269 264 273 259 237 237 231 238 231 230 232 235 233 230 229 221 219 219 218 214 211 210 210 214 223 226 234 242 244 245 248 251 251 252 254 257 259 262 265 268 269 271
290 272 271 270 266 247 242 237 238 242 237 230 234 242 247 233 221 217 216 214 211 210 205 206 207 210 220 228 241 251 251 253 257 260 261 261 261 262 264 266 268 269 271
312 283 257 252 256 252 249 243 238 242 240 212 205 198 233 258 235 221 214 210 210 204 208 209 201 200 203 209 234 251 263 263 263 265 270 270 268 267 268 270 271 271 272
308 288 272 254 253 241 246 244 233 230 239 230 212 200 195 221 246 239 223 216 212 207 207 203 201 202 203 205 218 247 266 269 266 267 269 274 273 271 271 271 273 273 276
306 285 274 263 259 254 255 250 240 234 233 236 233 225 228 189 199 244 246 231 224 216 211 209 205 205 204 210 229 247 258 266 267 268 270 272 275 276 276 277 276 275 276
304 296 279 262 256 255 254 251 248 238 234 235 232 222 226 263 231 219 242 234 239 224 223 219 211 206 211 221 230 247 256 260 264 267 270 272 274 276 277 277 278 280 278
306 312 292 274 265 259 255 250 239 237 241 238 236 231 210 207 215 228 237 235 247 240 228 217 217 217 217 228 244 262 259 262 264 267 270 273 275 277 277 278 280 281 282
300 303 295 285 273 266 265 254 237 238 238 237 235 242 235 228 224 241 238 248 261 266 244 228 219 220 227 231 244 258 256 262 263 268 271 274 281 282 281 281 282 282 283
285 289 287 286 281 274 274 262 247 241 238 238 241 238 242 240 227 232 225 232 265 273 255 248 241 225 236 244 260 263 254 267 268 271 273 277 283 286 284 282 282 282 282
289 296 289 285 282 272 263 257 246 240 233 233 237 238 239 249 236 234 228 216 221 247 253 240 238 237 252 248 258 249 257 270 278 275 275 278 282 284 285 284 284 282 283
298 297 297 288 282 276 267 258 262 248 230 234 229 229 243 247 247 233 229 243 237 238 252 248 251 272 274 275 272 259 259 277 271 272 273 277 280 280 280 282 284 283 284
302 294 295 292 289 291 286 268 260 256 246 245 240 232 242 237 233 242 236 234 237 240 258 274 279 279 278 283 286 270 264 256 260 270 273 277 278 277 277 279 280 281 282
307 306 307 301 296 293 286 273 269 262 243 239 238 230 235 230 227 229 234 244 243 241 248 267 279 272 264 262 278 279 276 271 261 270 274 276 276 276 276 277 279 281 281
322 323 320 309 299 289 283 275 261 261 247 244 242 235 234 223 227 229 233 243 252 258 252 257 272 278 276 264 280 288 275 265 270 276 274 273 275 277 277 277 279 281 281
327 326 321 309 302 297 292 287 277 264 253 247 247 243 241 231 229 228 233 238 250 256 254 253 265 274 276 272 268 284 291 282 283 286 277 278 278 277 276 277 278 280 280
334 330 331 327 320 309 303 298 281 266 263 264 257 246 244 246 246 245 244 239 243 249 254 255 260 268 269 279 273 278 289 296 281 263 269 272 271 261 261 269 274 278 279
339 341 339 331 329 325 324 314 309 278 274 275 277 274 258 245 251 259 261 259 254 249 248 252 258 255 267 270 273 279 289 294 289 268 287 280 266 267 265 257 274 278 277
343 346 341 339 332 325 331 336 338 322 298 289 284 290 295 280 271 249 257 263 260 259 255 250 253 255 260 259 263 272 275 281 280 283 288 279 266 266 269 273 283 285 280
340 339 336 335 331 333 343 341 338 332 318 308 295 286 282 277 275 276 259 259 258 256 260 251 246 251 253 253 251 261 269 283 284 267 256 273 280 277 282 271 272 282 287
334 333 331 337 337 334 340 337 333 324 316 309 299 292 286 283 293 296 281 273 277 279 291 283 280 278 274 271 270 268 270 278 287 279 246 260 279 291 281 266 271 283 290
321 329 334 332 329 326 332 335 331 315 308 309 313 309 305 302 298 302 284 270 274 281 287 297 293 288 272 263 269 254 254 266 282 281 245 262 276 302 296 268 265 274 282